Meeker, CO

4:44 AM MDT on July 26, 2017 (GMT -0600)
Meeker

Weather History for KEEO - December, 2013

Change the Weather History Date:

Wednesday, December 25, 2013

  Actual Average Record
Temperature  
Mean Temperature 10 °F 20 °F  
Max Temperature 26 °F 33 °F 41 °F (2005)
Min Temperature -7 °F 7 °F -8 °F (2012)
Degree Days  
Heating Degree Days 55 45  
Month to date heating degree days 1264 1081  
Since 1 July heating degree days 3162 3017  
Cooling Degree Days 0 0  
Month to date cooling degree days 0 0  
Year to date cooling degree days 324 172  
Moisture  
Dew Point 1 °F    
Average Humidity 71    
Maximum Humidity 91    
Minimum Humidity 50    
Precipitation  
Precipitation 0.00 in 0.03 in 0.46 in (2015)
Month to date precipitation 0.94 0.89  
Year to date precipitation 17.94 15.84  
Sea Level Pressure  
Sea Level Pressure 30.71 in    
Wind  
Wind Speed 3 mph (NE)    
Max Wind Speed 10 mph    
Max Gust Speed 14 mph    
Visibility 10 miles    
Events      
T = Trace of Precipitation, MM = Missing Value Source: NWS Daily Summary

Daily Weather History Graph

Daily Weather History Graph

Search for Another Location

Airport or City:

Trip Planner

Search our weather history database for the weather conditions in past years. The results will help you decide how hot, cold, wet, or windy it might be!

Date:

Astronomy

Dec. 25, 2013 Rise Set
Actual Time 7:31 AM MST 4:51 PM MST
Civil Twilight 7:01 AM MST 5:22 PM MST
Nautical Twilight 6:27 AM MST 5:56 PM MST
Astronomical Twilight 5:54 AM MST 6:29 PM MST
Moon 12:02 AM MST (12/25) 11:57 AM MST (12/25)
Length of Visible Light 10h 21m
Length of Day
9h 19m
Waning Gibbous, 48% of the Moon is Illuminated
Dec 25
Waning Gibbous
Jan 1
New
Jan 7
First Quarter
Jan 15
Full
Jan 23
Last Quarter

Hourly Weather History & Observations

Time (MST) Temp. Windchill Dew Point Humidity Pressure Visibility Wind Dir Wind Speed Gust Speed Precip Events Conditions
12:53 AM -0.0 °F -9.9 °F -4.0 °F 83% 30.62 in 10.0 mi NE 4.6 mph - N/A   Clear
1:53 AM 8.1 °F -4.3 °F 1.9 °F 76% 30.61 in 10.0 mi SE 8.1 mph - N/A   Clear
2:53 AM 1.0 °F - -2.9 °F 83% 30.64 in 10.0 mi Calm Calm - N/A   Clear
3:53 AM -0.0 °F -9.9 °F -4.0 °F 83% 30.66 in 10.0 mi NE 4.6 mph - N/A   Clear
4:53 AM -5.1 °F - -7.1 °F 91% 30.69 in 10.0 mi Calm Calm - N/A   Clear
5:53 AM -2.9 °F - -7.1 °F 82% 30.73 in 10.0 mi Calm Calm - N/A   Clear
6:53 AM -2.9 °F -11.2 °F -8.0 °F 79% 30.80 in 10.0 mi ENE 3.5 mph - N/A   Clear
7:53 AM -4.0 °F -12.4 °F -9.0 °F 79% 30.82 in 10.0 mi North 3.5 mph - N/A   Clear
8:53 AM 3.0 °F - -0.9 °F 84% 30.82 in 10.0 mi Calm Calm - N/A   Clear
9:53 AM 10.0 °F 3.6 °F 5.0 °F 80% 30.76 in 10.0 mi North 3.5 mph - N/A   Clear
10:53 AM 12.0 °F - 5.0 °F 73% 30.77 in 10.0 mi Calm Calm - N/A   Clear
11:53 AM 16.0 °F - 7.0 °F 68% 30.72 in 10.0 mi Calm Calm - N/A   Clear
12:53 PM 19.9 °F - 9.0 °F 62% 30.69 in 10.0 mi Calm Calm - N/A   Clear
1:53 PM 25.0 °F - 9.0 °F 51% 30.61 in 10.0 mi Calm Calm - N/A   Clear
2:53 PM 25.0 °F - 10.0 °F 53% 30.65 in 10.0 mi Calm Calm - N/A   Clear
3:53 PM 25.0 °F - 10.0 °F 53% 30.66 in 10.0 mi Calm Calm - N/A   Clear
4:53 PM 17.1 °F - 7.0 °F 65% 30.71 in 10.0 mi Calm Calm - N/A   Clear
5:53 PM 3.9 °F - -0.9 °F 80% 30.76 in 10.0 mi Calm Calm - N/A   Clear
6:53 PM 7.0 °F -3.3 °F 1.0 °F 77% 30.76 in 10.0 mi NE 5.8 mph - N/A   Clear
7:53 PM 10.0 °F -1.9 °F 1.9 °F 70% 30.76 in 10.0 mi NE 8.1 mph - N/A   Clear
8:53 PM 10.9 °F 1.4 °F 1.9 °F 67% 30.73 in 10.0 mi Variable 5.8 mph - N/A   Clear
9:53 PM 8.1 °F -3.2 °F 1.9 °F 76% 30.72 in 10.0 mi East 6.9 mph - N/A   Clear
10:53 PM 8.1 °F - 1.0 °F 73% 30.71 in 10.0 mi Calm Calm - N/A   Clear
11:53 PM 8.1 °F -2.0 °F 1.9 °F 76% 30.70 in 10.0 mi NE 5.8 mph - N/A   Clear